Location: Fornova de Taro
(44.7000°N, 10.1000°E)
Time: 21:45:08
(UTC+00:00)

Cosmos 2084 Rocket - Pass Details

Date: 26 May 2022
Orbit: 497 x 678 km, 62.8° (Epoch: 03 July)

Event Time Altitude Azimuth Distance (km) Brightness Sun altitude
Exits shadow 01:49:35 19° 266° (W) 1,232 4.7 -15.5°
Maximum altitude 01:51:37 32° 317° (NW) 875 4.4 -15.3°
Drops below altitude 10° 01:55:04 10° 22° (NNE) 1,705 7.1 -14.9°
Sets 01:57:23 0° 33° (NNE) 2,597 8.7 -14.7°
